Location: Montichiari
(45.4167°N, 10.3833°E)
Time: 00:50:55
(UTC+00:00)

Daily predictions for brighter satellites

Satellite Brightness Start Highest point End
(mag) Time Altitude Azimuth Time Altitude Azimuth Time Altitude Azimuth
Meteor 1-12 Rocket 4.2 00:05:17 62° S 00:06:18 88° E 00:12:04 10° NNE
Cosmos 1420 Rocket 3.9 00:08:33 68° SW 00:09:08 78° WNW 00:14:22 10° NNE
Cosmos 1238 Rocket 4.2 00:07:29 10° NNW 00:12:37 48° W 00:13:23 45° WSW
Cosmos 2360 Rocket 3.7 00:11:33 21° ESE 00:12:45 22° E 00:17:01 10° NE
Cosmos 1980 Rocket 2.5 00:12:07 45° WSW 00:13:30 57° WNW 00:19:04 10° NNE
Cosmos 1455 Rocket 3.0 00:14:35 76° NW 00:14:35 76° NW 00:18:50 10° N
ATLAS 3B R/B 4.5 00:14:18 10° NNW 00:20:15 30° NNE 00:25:56 10° E
Cosmos 1140 Rocket 4.4 00:20:54 10° NW 00:25:08 32° W 00:25:08 32° W
H-2A R/B 2.4 00:25:44 10° N 00:29:29 71° NW 00:29:29 71° NW
Cosmos 1741 Rocket 4.2 00:29:27 10° NNW 00:34:30 50° WSW 00:34:37 50° WSW
Helios 1A Rocket 3.5 00:31:05 10° NNE 00:34:58 45° E 00:35:04 45° ESE
Cosmos 44 Rocket 3.4 00:31:53 10° NNW 00:36:37 70° NE 00:38:19 39° SE
CZ-4C R/B 3.4 00:33:17 10° NW 00:39:51 37° WSW 00:40:47 36° SW
Cosmos 1697 Rocket 4.4 00:37:49 16° W 00:40:51 25° NW 00:45:26 10° N
Cosmos 1743 3.3 00:43:35 46° WNW 00:43:35 46° WNW 00:47:01 10° N
Cosmos 1842 3.2 00:40:02 10° N 00:43:47 80° NE 00:43:47 80° NE
Cosmos 1331 Rocket 4.2 00:43:09 49° SSE 00:44:11 58° ESE 00:49:16 10° NNE
NOSS 3-1 (C) 3.8 00:42:03 33° WSW 00:44:38 57° NW 00:51:13 10° NE
Cosmos 1602 Rocket 3.6 00:43:00 10° NNW 00:47:24 62° W 00:47:28 62° W
Meteor 1-4 Rocket 3.6 00:56:52 36° ESE 00:57:04 36° E 01:00:23 10° NNE
Lacrosse 5 rocket 3.6 00:54:02 10° NNW 00:57:16 25° NNE 01:00:39 10° E
SL-16 R/B 2.3 00:56:56 45° SW 00:58:40 69° WNW 01:04:21 10° NNE
Resurs 1-4 Rocket 3.4 00:55:02 10° NNE 00:59:43 31° E 01:02:22 20° SE
PSLV R/B 4.3 00:55:27 10° N 01:00:00 46° WNW 01:00:55 41° WSW
Cosmos 1709 Rocket 4.0 01:00:04 42° SW 01:02:02 64° W 01:08:08 10° N
CBERS-1 4.3 00:57:18 10° NNE 01:02:25 60° ESE 01:04:08 39° SSE
Meteor 2-9 Rocket 4.2 01:02:04 44° SSW 01:04:02 84° W 01:09:58 10° N
Meteor 1-21 4.5 00:59:12 10° NNW 01:04:37 51° W 01:05:50 43° SW
Cosmos 2322 Rocket 2.4 01:03:51 40° WSW 01:05:46 61° WNW 01:11:28 10° NNE
Cosmos 1726 Rocket 4.4 01:05:44 32° SE 01:07:10 43° E 01:11:22 10° NNE
Cosmos 1486 Rocket 4.2 01:02:13 10° NNW 01:07:33 72° ENE 01:10:49 24° SSE
Meteor 1-15 Rocket 4.3 01:07:27 38° S 01:09:41 72° E 01:15:25 10° NNE
Iridium 4 Rocket 4.4 01:11:12 22° SSE 01:14:48 50° E 01:20:07 10° NNE
SL-08 ROCKET BODY 4.4 01:12:29 38° S 01:15:03 87° W 01:21:07 10° N
Cosmos 1437 Rocket 3.6 01:15:50 36° W 01:16:11 37° WNW 01:20:03 10° N
USA 234 3.2 01:09:52 10° NE 01:16:26 73° SE 01:19:31 34° SW
DELTA 2 R/B (1) 4.1 01:18:41 37° S 01:19:11 38° SSE 01:24:18 10° E
NOSS 2-3 (D) 4.2 01:19:01 41° S 01:20:28 57° ESE 01:25:52 10° NE
Cosmos 1606 Rocket 3.6 01:21:04 45° S 01:22:23 76° E 01:26:51 10° NNE
Meteor 2-13 Rocket 4.4 01:20:34 35° S 01:23:21 86° W 01:29:34 10° N
Cosmos 44 3.2 01:20:14 10° NW 01:24:28 50° WSW 01:24:43 49° SW
Cosmos 1707 3.4 01:21:57 10° N 01:25:45 52° ENE 01:27:29 28° SE
ADEOS Rocket 2.9 01:19:31 10° NNE 01:25:49 86° WNW 01:28:29 34° SSW
CZ-2D R/B 2.6 01:23:55 10° NNE 01:29:20 56° E 01:32:25 25° S
NPP 3.7 01:26:55 10° N 01:32:18 71° WNW 01:34:35 35° SSW
IRS-P3 4.2 01:27:49 10° N 01:33:08 66° WNW 01:35:22 35° SW
SL-16 R/B 2.5 01:29:11 19° SSE 01:33:55 88° WSW 01:40:14 10° NNW
SL-8 R/B 3.7 01:32:52 42° SW 01:34:23 67° SSE 01:39:12 10° ENE
SL-08 R/B 3.5 01:37:07 39° SW 01:38:15 48° W 01:42:44 10° NNW
Cosmos 2184 Rocket 3.9 01:37:22 30° SSW 01:40:38 77° W 01:46:50 10° N
Cosmos 1302 Rocket 4.0 01:40:12 34° SSW 01:42:31 77° WNW 01:47:51 10° NNE
Cosmos 1825 Rocket 3.9 01:39:04 10° NNW 01:43:16 45° W 01:44:16 38° SW
Cosmos 2237 4.3 01:41:40 30° SSW 01:44:36 75° ESE 01:50:18 10° NNE
Cosmos 2263 Rocket 3.1 01:39:56 10° NW 01:44:44 28° WSW 01:45:35 27° WSW
Cosmos 1758 Rocket 3.6 01:41:38 10° NNW 01:45:54 57° W 01:47:18 38° SSW
ATLAS 2AS CENTAUR R/B 3.1 01:42:13 26° SSW 01:47:00 74° ESE 01:55:09 10° NE
Cosmos 2228 3.0 01:48:59 31° S 01:50:58 82° E 01:55:17 10° N
AQUA 4.1 01:47:10 10° N 01:51:49 53° WNW 01:53:52 31° SW
MOZ.5/SAFIR/RUBIN 5/SL-8 4.2 01:48:46 10° SSE 01:53:20 61° ENE 01:57:55 10° N
IRS-1D 3.4 01:48:57 10° NNE 01:53:57 88° ESE 01:56:48 26° SSW
Spot 4 Rocket 4.0 01:50:37 10° NNE 01:55:49 86° WNW 01:58:50 26° SSW
Cosmos 2360 Rocket 2.4 01:53:19 28° SW 01:56:17 59° WNW 02:01:53 10° NNE
ADEOS 3.6 01:52:37 10° NNE 01:57:52 77° ESE 02:01:21 22° S
UNK 3.9 01:56:27 28° SSW 01:58:41 54° W 02:03:15 10° NNW
Cosmos 2219 Rocket 3.1 01:54:41 16° S 01:58:51 43° ESE 02:04:11 10° NE
NOSS 2-3 (E) 4.0 01:56:34 29° SW 01:59:06 72° NW 02:04:49 10° NE
Cosmos 1503 Rocket 3.9 01:55:01 10° NNW 02:00:20 78° WSW 02:05:40 10° SSE
Cosmos 1844 Rocket 2.6 01:58:45 10° NNW 02:04:28 85° WSW 02:10:08 10° SSE
Cosmos 2237 Rocket 3.8 02:01:24 10° SSE 02:06:04 28° ESE 02:10:45 10° NE
Nadezhda 3 Rocket 4.0 02:00:39 10° N 02:06:55 82° W 02:13:11 10° S
COSMOS 2428 2.7 02:04:52 23° SSW 02:08:36 83° ESE 02:14:23 10° NNE
ATLAS 3B R/B 2.5 02:04:54 10° NW 02:11:42 82° SW 02:18:12 10° SSE
Cosmos 1340 Rocket 2.7 02:11:54 10° NNW 02:15:53 78° W 02:19:07 15° S
Abrixas rocket 4.4 02:15:15 13° SSE 02:16:18 15° SE 02:18:19 10° ESE
ARIANE 5 R/B 2.6 02:11:30 10° N 02:16:37 66° WNW 02:20:08 20° SSW
Cosmos 1271 Rocket 2.8 02:14:52 25° SSW 02:17:07 72° W 02:21:06 10° N
MOS 1 Rocket 3.1 02:12:53 10° N 02:17:25 79° WNW 02:20:19 21° SSW
Cosmos 1992 Rocket 4.1 02:13:53 18° S 02:17:43 74° ESE 02:22:56 10° NNE
ERBS 4.4 02:16:22 13° SSE 02:18:11 19° SE 02:20:44 10° E
BREEZE-M DEB (TANK) 2.9 02:17:28 26° SSW 02:18:37 38° SSE 02:23:03 10° ENE
Intercosmos 24 4.3 02:19:16 17° S 02:22:23 85° E 02:28:00 10° N
BREEZE M DEB (TANK) 3.3 02:18:53 10° W 02:22:46 39° NNW 02:24:53 10° ENE
Cosmos 1544 3.7 02:20:23 13° S 02:23:34 56° E 02:27:14 10° NNE
Cosmos 2322 4.4 02:22:49 18° WSW 02:26:35 43° WNW 02:31:59 10° NNE
Cosmos 1607 4.4 02:20:39 10° NW 02:26:39 42° WSW 02:32:38 10° S
Cosmos 2333 Rocket 2.7 02:22:06 13° S 02:27:06 59° ESE 02:32:41 10° NNE
Cosmos 2058 Rocket 3.9 02:25:20 21° SW 02:27:48 37° WNW 02:32:00 10° N
UNKNOWN OBJECT B 2.7 02:24:55 10° N 02:28:46 81° WNW 02:31:40 17° SSW
Cosmos 1184 Rocket 3.8 02:28:27 10° NNW 02:31:22 28° W 02:32:30 23° SW
ADEOS II 3.3 02:29:12 10° NNE 02:34:06 39° E 02:39:00 10° SSE
Cosmos 1812 Rocket 3.6 02:31:00 12° S 02:35:05 82° E 02:39:27 10° N
Cosmos 2154 Rocket 4.2 02:30:22 16° SSW 02:35:22 55° WNW 02:41:32 10° N
Cosmos 2278 Rocket 2.5 02:30:12 10° NNW 02:35:53 72° ENE 02:41:32 10° SSE
Lacrosse 5 rocket 1.2 02:32:51 10° NW 02:36:49 78° SW 02:41:01 10° SE
Resurs 1-4 Rocket 2.9 02:34:46 10° N 02:39:36 37° WNW 02:43:27 15° SW
USA 238 DEB 3.7 02:32:59 10° NW 02:40:01 68° WSW 02:47:05 10° SSE
USA 238 3.7 02:33:05 10° NW 02:40:08 69° WSW 02:47:13 10° SSE
Cosmos 1356 Rocket 3.4 02:36:05 10° N 02:40:08 82° E 02:44:08 10° SSE
Meteor 1-24 Rocket 3.8 02:36:02 10° NNW 02:41:19 57° W 02:46:46 10° S
SL-16 R/B 4.3 02:40:42 10° WNW 02:43:53 15° NW 02:47:04 10° N
Meteor 2-5 Rocket 4.5 02:38:54 10° NNW 02:43:57 34° W 02:48:45 12° SSW
CZ-2D R/B 3.6 02:40:41 10° N 02:44:58 63° WNW 02:48:40 13° SSW
SeaSat 1 3.3 02:41:28 10° SE 02:46:15 55° ENE 02:51:05 10° NNW
Cosmos 1758 3.8 02:44:19 10° S 02:48:17 63° E 02:52:20 10° NNE
Okean O Rocket 3.2 02:44:29 10° NNE 02:48:34 34° E 02:52:37 10° SSE
Okean 3 Rocket 4.1 02:44:23 10° N 02:48:47 63° E 02:53:12 10° SSE
CZ-3A R/B 3.4 02:39:03 10° NW 02:49:29 88° SW 02:54:42 10° SE
Cosmos 2322 Rocket 4.4 02:48:15 10° WNW 02:51:05 14° NW 02:53:55 10° N
Cosmos 1953 2.8 02:49:42 10° S 02:53:39 62° E 02:57:39 10° NNE
Cosmos 2366 rocket 4.2 02:47:44 10° S 02:53:52 74° E 03:00:06 10° NNE
SL-16 R/B 3.9 02:49:39 10° SSE 02:54:27 29° ESE 02:59:16 10° NE
NOSS 3-2 (A) 4.1 02:48:15 10° NW 02:55:44 88° NE 03:03:54 10° SE
USA 161 1.5 02:54:57 10° S 02:57:54 59° W 03:00:43 10° NNW
Cosmos 2341 Rocket 4.4 02:52:45 10° SSW 02:58:54 51° WNW 03:05:07 10° N
USA 234 4.0 02:53:02 10° NE 02:59:15 47° NNW 03:05:27 10° W
Cosmos 1470 4.1 02:56:05 10° SSE 02:59:47 41° E 03:03:28 10° NNE
PSLV R/B 4.4 02:57:04 10° NNE 03:00:57 58° E 03:04:54 10° S
Cosmos 1844 4.1 02:55:53 10° NW 03:01:05 40° WSW 03:06:18 10° S
DELTA 2 R/B (1) 4.0 02:59:47 10° WSW 03:05:07 47° S 03:10:25 10° ESE
Aureole 2 Rocket 3.6 03:04:46 11° SW 03:08:25 36° WNW 03:12:07 10° N
Timation 1 Rocket 4.3 03:02:39 10° NNW 03:08:35 67° WSW 03:14:30 10° SSE
CZ-2D R/B 3.6 03:04:43 10° N 03:09:00 24° WNW 03:13:15 10° WSW
CZ-4B R/B 3.3 03:05:23 10° NNE 03:09:14 62° ESE 03:13:15 10° S
ATLAS CENTAUR R/B 1.8 03:03:56 10° NW 03:10:05 86° NE 03:12:40 10° SE
Cosmos 389 Rocket 3.9 03:10:27 10° SW 03:13:21 23° WNW 03:16:19 10° NNW
RESURS DK-1 4.4 03:12:54 10° SSE 03:16:19 25° ESE 03:19:44 10° NE
Cosmos 968 Rocket 3.7 03:11:28 10° NNW 03:16:25 47° WSW 03:21:18 10° S
Cosmos 2218 Rocket 4.1 03:10:34 10° SSW 03:16:50 69° W 03:23:13 10° N
SL-8 R/B 4.2 03:12:15 10° W 03:17:03 62° N 03:21:52 10° ENE
NOSS 3-2 (C) 4.1 03:09:41 10° NW 03:17:11 89° SW 03:25:21 10° SE
SL-16 R/B 4.1 03:14:55 10° WSW 03:18:22 15° W 03:21:51 10° NW
Cosmos 1733 3.5 03:15:06 10° S 03:18:58 75° E 03:22:52 10° NNE
Cosmos 1674 2.8 03:17:21 10° NNW 03:21:09 60° W 03:24:57 10° S
PSLV R/B 3.8 03:19:17 10° NNE 03:23:42 81° ESE 03:28:05 10° S
Cosmos 1818 3.7 03:21:43 10° SSW 03:27:08 79° ESE 03:32:36 10° NE
CENTAUR R/B 4.1 03:20:11 10° NNW 03:27:45 54° NE 03:35:56 10° ESE
